Powrót do katalogu

STARLINK-35130

AktywnyŁącznośćVLEO
NORAD 65740·PAYLOAD·🇺🇸 United States

Wystrzelony Sep 25, 2025 z Cape Canaveral Space Force Station

Loading…

Następne Przeloty (najbliższe 24 godziny)

TLE

ŚwieżeSource: CelesTrak SupGP

Epoka: Sep 14, 2026, 22:55 UTC

1 65740C 25216G   26257.95534722 -.00045966  00000+0 -13577-2 0  2570
2 65740  53.1570 171.9375 0001295  89.1717  29.4237 15.34422472    10

Śledź STARLINK-35130 w czasie rzeczywistym z AllMySat

Download on the App Store